Massena, NY

10:56 AM EDT on July 25, 2017 (GMT -0400)
Massena International-Richards

Weather History for KMSS - September, 2013

Change the Weather History Date:

Friday, September 13, 2013

  Actual Average Record
Temperature  
Mean Temperature 56 °F 60 °F  
Max Temperature 62 °F 71 °F 90 °F (1951)
Min Temperature 49 °F 48 °F 32 °F (1964)
Degree Days  
Heating Degree Days 9 6  
Month to date heating degree days 68 61  
Since 1 July heating degree days 124 136  
Cooling Degree Days 0 1  
Month to date cooling degree days 30 18  
Year to date cooling degree days 417 354  
Growing Degree Days 6 (Base 50)    
Moisture  
Dew Point 50 °F    
Average Humidity 81    
Maximum Humidity 90    
Minimum Humidity 72    
Precipitation  
Precipitation 0.02 in 0.12 in 1.17 in (1977)
Month to date precipitation 3.38 1.49  
Year to date precipitation 26.50 24.03  
Sea Level Pressure  
Sea Level Pressure 29.82 in    
Wind  
Wind Speed 9 mph (NW)    
Max Wind Speed 15 mph    
Max Gust Speed 22 mph    
Visibility 10 miles    
Events Rain    
T = Trace of Precipitation, MM = Missing Value Source: NWS Daily Summary

Daily Weather History Graph

Daily Weather History Graph

Search for Another Location

Airport or City:

Trip Planner

Search our weather history database for the weather conditions in past years. The results will help you decide how hot, cold, wet, or windy it might be!

Date:

Astronomy

Sep. 13, 2013 Rise Set
Actual Time 6:35 AM EDT 7:13 PM EDT
Civil Twilight 6:06 AM EDT 7:43 PM EDT
Nautical Twilight 5:31 AM EDT 8:18 PM EDT
Astronomical Twilight 4:54 AM EDT 8:54 PM EDT
Moon 3:12 PM EDT (9/13) No Moon Set
Length of Visible Light 13h 36m
Length of Day
12h 37m
First Quarter, 61% of the Moon is Illuminated
Sep 13
First Quarter
Sep 19
Full
Sep 26
Last Quarter
Oct 4
New
Oct 11
First Quarter

Hourly Weather History & Observations

Time (EDT) Temp. Dew Point Humidity Pressure Visibility Wind Dir Wind Speed Gust Speed Precip Events Conditions
12:20 AM 62.6 °F 59.0 °F 88% 29.68 in 10.0 mi NW 5.8 mph - N/A   Mostly Cloudy
12:53 AM 62.1 °F 57.9 °F 86% 29.69 in 10.0 mi WNW 10.4 mph - N/A   Mostly Cloudy
1:13 AM 62.6 °F 57.2 °F 82% 29.69 in 10.0 mi NW 9.2 mph - N/A   Overcast
1:38 AM 60.8 °F 57.2 °F 88% 29.70 in 10.0 mi NW 6.9 mph - N/A   Overcast
1:53 AM 61.0 °F 57.0 °F 87% 29.70 in 10.0 mi NW 6.9 mph - N/A   Overcast
2:31 AM 60.8 °F 57.2 °F 88% 29.71 in 10.0 mi NW 8.1 mph - N/A   Overcast
2:38 AM 60.8 °F 55.4 °F 82% 29.71 in 10.0 mi NW 11.5 mph 18.4 mph N/A   Overcast
2:53 AM 60.1 °F 55.9 °F 86% 29.71 in 10.0 mi NW 11.5 mph 17.3 mph N/A   Overcast
3:53 AM 57.0 °F 53.1 °F 87% 29.73 in 10.0 mi NW 13.8 mph 21.9 mph N/A   Overcast
4:53 AM 55.9 °F 52.0 °F 87% 29.74 in 10.0 mi NW 12.7 mph 18.4 mph N/A   Overcast
5:09 AM 55.4 °F 51.8 °F 88% 29.74 in 10.0 mi NNW 8.1 mph - N/A   Overcast
5:53 AM 55.0 °F 48.9 °F 80% 29.75 in 10.0 mi NW 8.1 mph 19.6 mph N/A   Overcast
6:53 AM 54.0 °F 48.9 °F 83% 29.78 in 10.0 mi NW 10.4 mph - N/A   Overcast
7:53 AM 54.0 °F 48.0 °F 80% 29.81 in 10.0 mi NNW 8.1 mph - N/A   Overcast
8:53 AM 53.1 °F 46.9 °F 80% 29.82 in 10.0 mi NW 9.2 mph 17.3 mph N/A   Overcast
9:53 AM 54.0 °F 46.0 °F 75% 29.83 in 10.0 mi NW 9.2 mph - N/A   Overcast
10:53 AM 55.9 °F 46.9 °F 72% 29.83 in 10.0 mi NW 6.9 mph - N/A   Overcast
11:53 AM 54.0 °F 46.0 °F 75% 29.85 in 10.0 mi NNW 8.1 mph 17.3 mph N/A   Overcast
12:53 PM 53.1 °F 48.0 °F 83% 29.85 in 10.0 mi WNW 10.4 mph - N/A   Overcast
1:21 PM 53.6 °F 48.2 °F 82% 29.85 in 7.0 mi NW 12.7 mph 17.3 mph 0.00 in Rain Light Rain
1:53 PM 54.0 °F 48.0 °F 80% 29.85 in 10.0 mi NNW 10.4 mph 19.6 mph 0.00 in   Overcast
2:24 PM 53.6 °F 46.4 °F 77% 29.84 in 10.0 mi NNW 11.5 mph 19.6 mph 0.00 in   Overcast
2:53 PM 54.0 °F 46.9 °F 77% 29.86 in 10.0 mi NW 9.2 mph - 0.00 in   Overcast
3:53 PM 54.0 °F 46.9 °F 77% 29.87 in 10.0 mi NNW 6.9 mph - 0.00 in   Overcast
4:53 PM 52.0 °F 48.0 °F 86% 29.89 in 5.0 mi NW 8.1 mph 18.4 mph 0.01 in   Overcast
5:53 PM 52.0 °F 48.0 °F 86% 29.90 in 10.0 mi WNW 9.2 mph - N/A   Overcast
6:53 PM 52.0 °F 46.9 °F 83% 29.91 in 10.0 mi North 10.4 mph - N/A   Overcast
7:01 PM 51.8 °F 46.4 °F 82% 29.90 in 10.0 mi NNW 8.1 mph - N/A   Overcast
7:53 PM 52.0 °F 46.0 °F 80% 29.93 in 10.0 mi NW 9.2 mph - 0.00 in   Overcast
8:53 PM 51.1 °F 46.0 °F 83% 29.95 in 8.0 mi Variable 6.9 mph 19.6 mph 0.01 in Rain Light Rain
9:53 PM 50.0 °F 46.9 °F 89% 29.96 in 5.0 mi WNW 4.6 mph - 0.00 in Rain Light Rain
10:53 PM 50.0 °F 46.0 °F 86% 29.96 in 10.0 mi WNW 6.9 mph - 0.00 in   Overcast
11:53 PM 50.0 °F 44.1 °F 80% 29.96 in 10.0 mi WNW 8.1 mph - 0.00 in   Overcast